Home   Weather   Gaborone   Past weeks
Flag for Botswana

Past Weather in Gaborone, Botswana — Yesterday and Last 2 Weeks

Now
72 °F

Passing clouds.


Feels Like: 75 °F
Forecast: 87 / 69 °F
Wind: 5 mph from West

Location: Seretse Khama International Airport

Current Time: Jan 19, 2019 at 6:33:52 am

Latest Report: Jan 19, 2019 at 6:00 am


Visibility: N/A

Pressure: 29.95 "Hg (26.65 "Hg at 1009m altitude)

Humidity: 65%

Dew Point: 59 °F

Location of GaboroneLocation

Past Weather in Gaborone — Graph

°F

Gaborone Temperature Yesterday

Maximum temperature yesterday: 95 °F (at 5:00 pm)
Minimum temperature yesterday: 68 °F (at 5:00 am)
Average temperature yesterday: 82 °F

High & Low Weather Summary for the Past Weeks

 TemperatureHumidityPressure
High100 °F (Jan 10, 3:12 pm)100% (Jan 11, 6:00 am)30.15 "Hg (Jan 11, 6:00 am)
Low66 °F (Jan 5, 4:00 am)5% (Jan 15, 5:00 pm)29.74 "Hg (Jan 8, 4:00 pm)
Average83 °F50%29.92 "Hg
* Reported Jan 4 5:00 am — Jan 19 5:00 am, Gaborone. Weather by CustomWeather, © 2019

Note: Actual official high and low records may vary slightly from our data, if they occured in-between our weather recording intervals... More about our weather records

Advertising

Gaborone Weather History for the Previous 24 Hours

Scroll right to see more
 ConditionsComfort  
Time TempWeatherWind HumidityBarometerVisibility
5:00 am
Sat, Jan 19
73 °FClear.6 mph61%29.92 "Hg10 mi
4:00 am75 °FPassing clouds.13 mph57%29.89 "HgN/A
1:00 am81 °FPassing clouds.7 mph66%29.89 "HgN/A
12:00 am79 °FPassing clouds.16 mph39%29.92 "HgN/A
11:00 pm
Fri, Jan 18
70 °FThunderstorms. Passing clouds.28 mph73%29.98 "HgN/A
10:00 pm82 °FThunderstorms. Passing clouds.12 mph40%29.95 "HgN/A
9:00 pm81 °FPassing clouds.2 mph54%29.89 "HgN/A
8:00 pm82 °FPassing clouds.6 mph45%29.86 "HgN/A
7:00 pm88 °FScattered clouds.12 mph35%29.86 "HgN/A
6:00 pm91 °FScattered clouds.3 mph36%29.80 "HgN/A
5:00 pm95 °FScattered clouds.N/A23%29.80 "HgN/A
3:00 pm93 °FScattered clouds.5 mph34%29.86 "HgN/A
2:00 pm91 °FScattered clouds.8 mph36%29.89 "HgN/A
1:00 pm90 °FScattered clouds.6 mph41%29.95 "HgN/A
12:00 pm88 °FPassing clouds.12 mph43%29.95 "HgN/A
11:00 am84 °FPassing clouds.2 mph43%29.98 "HgN/A
10:00 am79 °FPassing clouds.6 mph54%29.98 "HgN/A
9:00 am79 °FPassing clouds.6 mph54%29.98 "HgN/A
8:00 am75 °FPassing clouds.7 mph65%29.98 "HgN/A
7:00 am72 °FPassing clouds.3 mph73%29.98 "HgN/A
6:00 am68 °FSunny.7 mph94%29.95 "Hg10 mi
Weather by CustomWeather, © 2019

See weather overview